Tracking 34171 objects as of 21-May-2026
HD Live streaming from Space Station
objects crossing your sky now

KUIPER-00439

Track KUIPER-00439 now!
10-day predictions
KUIPER-00439 is classified as:


NORAD ID: 68941
Int'l Code: 2026-098Y
Perigee: 465.9 km
Apogee: 476.1 km
Inclination: 51.9 °
Period: 93.9 minutes
Semi major axis: 6842 km
RCS: Unknown
Launch date: April 30, 2026
Source: United States (US)
Launch site: AIR FORCE EASTERN TEST RANGE (AFETR)
Your satellite tracking list
Your tracking list is empty




NASA's NSSDC Master Catalog

Two Line Element Set (TLE):
1 68941U 26098Y   26140.63278729  .00013283  00000-0  40809-3 0  9991
2 68941  51.8764 200.5865 0007459  51.7499 308.4157 15.34000551  3114
Source of the keplerian elements: AFSPC